Home   Weather   Falkensee   Past weeks

Flag for Germany Past Weather in Falkensee, Brandenburg, Germany — Yesterday and Last 2 Weeks

Now
32 °F

Ice fog.


Feels Like: 27 °F
Forecast: 28 / 33 °F
Wind: 5 mph from West

Location: Berlin-Tegel

Current Time: Jan 24, 2017 at 8:30:28 pm

Latest Report: Jan 24, 2017 at 7:50 pm


Visibility: 1 mi

Pressure: 30.42 "Hg

Humidity: 100%

Dew Point: 32 °F

Location of FalkenseeLocation

Past Weather in Falkensee — Graph

°F

Falkensee Temperature Yesterday

Maximum temperature yesterday: 28 °F (at 12:20 am)
Minimum temperature yesterday: 25 °F (at 3:20 am)
Average temperature yesterday: 27 °F

High & Low Weather Summary for the Past Weeks

 TemperatureHumidityPressure
High41 °F (Jan 12, 1:50 pm)100% (Jan 11, 2:50 pm)30.77 "Hg (Jan 11, 2:50 pm)
Low18 °F (Jan 17, 7:20 am)65% (Jan 10, 1:20 pm)29.00 "Hg (Jan 13, 7:50 am)
Average30 °F89%30.15 "Hg
* Reported Jan 9 6:20 pm — Jan 24 6:50 pm, Falkensee, Weather by CustomWeather, © 2017

Note: Actual official high and low records may vary slightly from our data, if they occured in-between our weather recording intervals... More about our weather records

Advertising

Falkensee Weather History for the Previous 24 Hours

Scroll right to see more
 ConditionsComfort  
Time TempWeatherWind HumidityBarometerVisibility
6:50 pm
Tue, Jan 24
32 °FIce fog.5 mph100%30.42 "Hg1 mi
6:20 pm30 °FIce fog.5 mph100%30.42 "Hg1 mi
5:50 pm30 °FIce fog.5 mph100%30.42 "Hg2 mi
5:20 pm30 °FIce fog.6 mph100%30.39 "Hg2 mi
4:50 pm32 °FLight freezing rain. Ice fog.6 mph93%30.39 "Hg1 mi
4:20 pm32 °FIce fog.6 mph100%30.39 "Hg1 mi
3:50 pm32 °FIce fog.6 mph100%30.39 "Hg1 mi
3:20 pm32 °FIce fog.5 mph93%30.39 "Hg1 mi
2:50 pm32 °FIce fog.5 mph93%30.39 "Hg1 mi
2:20 pm32 °FIce fog.7 mph93%30.36 "Hg2 mi
1:50 pm32 °FIce fog.6 mph93%30.36 "Hg2 mi
1:20 pm32 °FIce fog.6 mph93%30.36 "Hg1 mi
12:50 pm32 °FIce fog.6 mph93%30.36 "Hg1 mi
12:20 pm30 °FIce fog.5 mph100%30.36 "Hg1 mi
11:50 am30 °FIce fog.5 mph100%30.36 "Hg2 mi
11:20 am30 °FIce fog.5 mph100%30.36 "Hg2 mi
10:50 am30 °FIce fog.6 mph100%30.36 "Hg2 mi
10:20 am30 °FIce fog.5 mph100%30.36 "Hg2 mi
9:50 am30 °FIce fog.5 mph100%30.36 "Hg2 mi
9:20 am30 °FIce fog.7 mph93%30.33 "Hg2 mi
8:50 am30 °FIce fog.6 mph93%30.33 "Hg2 mi
8:20 am30 °FIce fog.5 mph93%30.33 "Hg2 mi
7:50 am30 °FIce fog.6 mph93%30.30 "Hg2 mi
7:20 am30 °FIce fog.6 mph93%30.30 "Hg2 mi
6:50 am30 °FIce fog.6 mph93%30.30 "Hg2 mi
6:20 am28 °FIce fog.6 mph100%30.30 "Hg2 mi
5:50 am28 °FIce fog.6 mph100%30.30 "Hg2 mi
5:20 am28 °FIce fog.5 mph100%30.27 "Hg2 mi
4:50 am28 °FIce fog.7 mph100%30.27 "Hg2 mi
4:20 am28 °FIce fog.6 mph100%30.27 "Hg2 mi
3:50 am30 °FIce fog.6 mph93%30.27 "Hg2 mi
3:20 am28 °FIce fog.6 mph100%30.27 "Hg2 mi
2:50 am28 °FIce fog.5 mph100%30.30 "Hg2 mi
2:20 am28 °FIce fog.6 mph100%30.27 "Hg2 mi
1:50 am28 °FIce fog.6 mph100%30.27 "Hg2 mi
1:20 am28 °FIce fog.5 mph100%30.27 "Hg2 mi
12:50 am28 °FIce fog.6 mph100%30.27 "Hg2 mi
12:20 am28 °FIce fog.6 mph100%30.27 "Hg2 mi
11:50 pm
Mon, Jan 23
28 °FIce fog.6 mph100%30.27 "Hg2 mi
11:20 pm28 °FSnow flurries. Ice fog.7 mph100%30.27 "Hg2 mi
10:50 pm28 °FSnow flurries. Ice fog.6 mph100%30.27 "Hg2 mi
10:20 pm28 °FSnow flurries. Ice fog.7 mph100%30.27 "Hg2 mi
9:50 pm28 °FSnow flurries. Ice fog.7 mph100%30.27 "Hg2 mi
9:20 pm28 °FSnow flurries. Ice fog.6 mph100%30.27 "Hg2 mi
8:50 pm28 °FSnow flurries. Ice fog.6 mph100%30.27 "Hg2 mi
8:20 pm28 °FSnow flurries. Ice fog.7 mph100%30.27 "Hg2 mi
Weather by CustomWeather, © 2017

See weather overviewHow to use our weather pages